Regional Weather Roundup
Issued by NWS

Home | Current Version | Previous Version | Graphics & Text | Print | Product List | Glossary On
Versions: 1 2 3 4 5 6 7 8 9 10 11 12 13 14 15 16 17 18 19 20 21 22 23 24 25 26 27
000
ASUS45 KBOU 230207
RWRCO

WEATHER ROUNDUP FOR COLORADO
NATIONAL WEATHER SERVICE DENVER/BOULDER CO
800 PM MDT MON AUG 22 2016

NOTE: "FAIR" INDICATES FEW OR NO CLOUDS BELOW 12000 FEET WITH NO
SIGNIFICANT WEATHER AND/OR OBSTRUCTIONS TO VISIBILITY.

COZ001>005-013-030-031-230300-
...NORTHWEST COLORADO...

CITY           SKY/WX    TMP DP  RH WIND       PRES   REMARKS
CRAIG          FAIR      71  38  29 E7        30.08R
HAYDEN         FAIR      66  37  34 SE7       30.11S
MEEKER         FAIR      66  45  46 SE5       30.13R
MOUNT WERNER   NOT AVBL
STEAMBOAT SPGS FAIR      65  40  39 SE6       30.13S
WALDEN         FAIR      55  39  54 SE5       30.25R
$$

COZ006>008-011-230300-
...WEST CENTRAL VALLEYS...

CITY           SKY/WX    TMP DP  RH WIND       PRES   REMARKS
GRAND JUNCTION LGT RAIN  75  46  35 SE12      30.05R
MONTROSE       FAIR      67  45  45 E9        30.15R
EAGLE          FAIR      66  43  42 SW20G26   30.17F
RIFLE          FAIR      66  49  54 S20G30    30.09F
DELTA          MOCLDY    70  47  44 E12       30.13R
NUCLA          FAIR      61  54  77 CALM      30.19R
$$

COZ017>023-064>068-230300-
...SOUTHWEST COLORADO...

CITY           SKY/WX    TMP DP  RH WIND       PRES   REMARKS
DURANGO        CLOUDY    62  54  74 CALM      30.19R
CORTEZ         FAIR      65  49  56 SE3       30.13R
PAGOSA SPRINGS CLOUDY    53  51  92 CALM      30.28S
TELLURIDE      MOCLDY    51  47  85 CALM      30.35S
WOLF CREEK PAS MOCLDY    37  37 100 SW13      30.53S
$$

COZ009-010-012-014-032>034-037-058>063-230300-
...CENTRAL COLORADO...

CITY           SKY/WX    TMP DP  RH WIND       PRES   REMARKS
ASPEN          MOCLDY    61  42  49 SE10      30.25R
BUENA VISTA    CLOUDY    61  36  38 W14G26    30.25R
COPPER MTN     CLOUDY    48  32  53 W10       30.51S
BERTHOUD PASS  CLOUDY    39  27  60 N5        30.53R
COTTONWOOD PAS CLOUDY    54  36  50 W12G24    30.37R
GUNNISON       CLOUDY    54  48  82 N5        30.32S
KREMMLING      FAIR      63  36  36 CALM      30.21S
LEADVILLE      CLOUDY    49  40  71 W3        30.37R
MONARCH PASS   CLOUDY    41  34  75 W9        30.61R
SALIDA         CLOUDY    65  40  40 W12       30.29R
SUNLIGHT       CLOUDY    46  41  81 NW6       30.47F
WILKERSON PASS NOT AVBL
$$

COZ069>075-230300-
...SAN LUIS VALLEY/SANGRE DE CRISTO MOUNTAINS...

CITY           SKY/WX    TMP DP  RH WIND       PRES   REMARKS
ALAMOSA        MOCLDY    62  41  46 N9        30.22R
LA VETA PASS   MOCLDY    50  34  53 W8        30.36R
SAGUACHE       MOCLDY    55  43  62 W5        30.27R
$$

COZ035-036-038>040-230300-
...NORTHERN COLORADO FRONT RANGE...

CITY           SKY/WX    TMP DP  RH WIND       PRES   REMARKS
DENVER INTL AP MOCLDY    78  37  22 W10       29.98R
DMNS CITY PARK   N/A     75  37  25 S3G9      29.99S
AURORA         MOCLDY    77  34  20 W7        30.01R
FRONT RANGE AP MOCLDY    77  36  22 W9        29.99R
ERIE MUNI ARPT FAIR      74  36  25 W3        29.97R
BOULDER MUN AP FAIR      77  36  22 SW8       29.98R
CENTENNIAL     MOCLDY    77  33  20 VRB5      30.03F
BROOMFIELD     MOCLDY    75  37  25 SW9       30.02R
FORT COLLINS   FAIR      75  37  25 CALM      29.94R
LONGMONT       FAIR      74  40  29 CALM      29.98R
$$

COZ041-046-047-076>085-087-088-230300-
...PIKES PEAK/PALMER DIVIDE AND SOUTHERN FOOTHILLS...

CITY           SKY/WX    TMP DP  RH WIND       PRES   REMARKS
COLO. SPRINGS  MOCLDY    72  42  34 N15       30.04R
A. F. ACADEMY  FAIR      69  40  34 N13       30.08R
SCHRIEVER AFB  NOT AVBL
ELLICOTT       NOT AVBL
FALCON         FAIR      68  36  31 N10G16    30.10R
FORT CARSON    FAIR      74  39  28 S6        30.01R
LIMON          FAIR      71  44  37 NW5       29.96R
MONUMENT HILL  FAIR      63  36  36 NW9       30.13R
TRINIDAD       FAIR      75  44  33 N14       30.03R
$$

COZ042>045-048>051-090-091-230300-
...NORTHEAST COLORADO...

CITY           SKY/WX    TMP DP  RH WIND       PRES   REMARKS
GREELEY ARPT   FAIR      73  43  33 N14       29.93R
AKRON          FAIR      78  47  33 S6        29.91R
BURLINGTON     FAIR      79  53  40 S17       29.91R
WRAY           NOT AVBL
STERLING       FAIR      75  55  50 CALM      29.85R
HOLYOKE        FAIR      79  57  47 S10       29.87S
FORT MORGAN    FAIR      74  47  38 CALM      29.90R
$$

COZ086-089-092>099-230300-
...SOUTHEAST COLORADO...

CITY           SKY/WX    TMP DP  RH WIND       PRES   REMARKS
PUEBLO         FAIR      81  42  25 W12       29.92R
LA JUNTA       FAIR      81  54  39 S9        29.87R
LAMAR          FAIR      81  56  42 S21G28    29.83S
SPRINGFIELD      N/A     76  54  46 S21       29.94S
$$




USA.gov is the U.S. government's official web portal to all federal, state and local government web resources and services.